FW0295 Weather Reports


time (UTC)temp
C
wind
direction
speed
KPH
gust
KPH
rain 1hr
cm
rain 24hr
cm
rain mn
cm
humidity
%
barometer
mb
20260505083044 11 360 0.0 0.0 0.00 0.00 0.00 50 1004.1
20260505081554 11 360 0.0 0.0 0.00 0.00 0.00 51 1003.3
20260505080009 11 360 0.0 0.0 0.00 0.00 0.00 50 1002.9
20260505074507 12 360 0.0 0.0 0.00 0.00 0.00 49 1002.6
20260505073002 12 360 0.0 0.0 0.00 0.00 0.00 48 1002.4
20260505071605 13 360 0.0 0.0 0.00 0.00 0.00 49 1002.1
20260505070056 13 360 0.0 0.0 0.00 0.00 0.00 48 1002.0
20260505064553 14 360 0.0 0.0 0.00 0.00 0.00 47 1002.0
20260505063105 14 360 0.0 0.0 0.00 0.00 0.00 48 1002.3
20260505061612 15 360 0.0 0.0 0.00 0.00 0.00 49 1002.2
20260505060044 15 360 0.0 0.0 0.00 0.00 0.00 50 1002.2
20260505054541 15 360 0.0 0.0 0.00 0.00 0.00 49 1002.3
20260505053040 16 360 0.0 0.0 0.00 0.00 0.00 49 1002.2
20260505051554 17 360 0.0 0.0 0.00 0.00 0.00 49 1001.7
20260505041600 17 360 0.0 0.0 0.00 0.00 0.00 49 1000.0
20260505040053 18 360 0.0 0.0 0.00 0.00 0.00 47 999.9
20260505034520 18 360 0.0 0.0 0.00 0.00 0.00 45 999.7
20260505033019 18 360 0.0 0.0 0.00 0.00 0.00 44 999.7
20260505031516 19 360 0.0 0.0 0.00 0.00 0.00 43 999.9
20260505030011 20 360 0.0 0.0 0.00 0.00 0.00 41 999.4
20260505024511 20 360 0.0 0.0 0.00 0.00 0.00 40 999.2
20260505023006 20 360 0.0 0.0 0.00 0.00 0.00 38 999.1
20260505021601 21 360 0.0 0.0 0.00 0.00 0.00 36 999.0
20260505020105 21 360 0.0 0.0 0.00 0.00 0.00 35 998.9
20260505014555 22 360 0.0 0.0 0.00 0.00 0.00 33 999.0
20260505013049 23 360 0.0 0.0 0.00 0.00 0.00 30 998.5
20260505011517 24 360 0.0 0.0 0.00 0.00 0.00 28 998.3
20260505010011 25 360 0.0 0.0 0.00 0.00 0.00 27 998.2
20260505004508 26 360 0.0 0.0 0.00 0.00 0.00 25 998.2
20260505003012 26 360 0.0 0.0 0.00 0.00 0.00 23 998.3
20260505001501 26 360 0.0 0.0 0.00 0.00 0.00 23 999.0
20260504234532 27 360 0.0 0.0 0.00 0.00 0.00 22 998.6
20260504233027 27 360 0.0 0.0 0.00 0.00 0.00 21 998.7
20260504231523 27 360 0.0 0.0 0.00 0.00 0.00 21 998.7
20260504230019 27 360 0.0 0.0 0.00 0.00 0.00 21 999.1
20260504224517 27 360 0.0 0.0 0.00 0.00 0.00 21 999.1
20260504223016 28 360 0.0 0.0 0.00 0.00 0.00 21 998.9
20260504221511 28 360 0.0 0.0 0.00 0.00 0.00 20 999.1
20260504220011 28 360 0.0 0.0 0.00 0.00 0.00 20 999.0
20260504214508 28 360 0.0 0.0 0.00 0.00 0.00 20 999.4
20260504213007 28 360 0.0 0.0 0.00 0.00 0.00 19 999.5
20260504211504 29 360 0.0 0.0 0.00 0.00 0.00 19 999.4
20260504210003 29 360 0.0 0.0 0.00 0.00 0.00 19 999.6
20260504204503 28 360 0.0 0.0 0.00 0.00 0.00 19 999.5
20260504203110 28 360 0.0 0.0 0.00 0.00 0.00 19 999.8
20260504201557 28 360 0.0 0.0 0.00 0.00 0.00 19 1000.1
20260504200053 30 360 0.0 0.0 0.00 0.00 0.00 18 1000.4
20260504194601 30 360 0.0 0.0 0.00 0.00 0.00 16 1000.5
20260504193051 30 360 0.0 0.0 0.00 0.00 0.00 16 1000.5
20260504191544 30 360 0.0 0.0 0.00 0.00 0.00 16 1000.7
20260504184538 30 360 0.0 0.0 0.00 0.00 0.00 16 1001.3
20260504183036 30 240 0.0 0.0 0.00 0.00 0.00 21 1001.5
20260504181535 30 240 0.0 0.0 0.00 0.00 0.00 21 1001.7
20260504180031 30 240 0.0 0.0 0.00 0.00 0.00 22 1001.9
20260504174526 30 238 0.0 0.0 0.00 0.00 0.00 24 1002.2
20260504173024 29 242 0.0 0.0 0.00 0.00 0.00 25 1002.5
20260504171517 28 242 0.0 0.0 0.00 0.00 0.00 27 1002.6